Regional Weather Roundup
Issued by NWS Charleston, SC

Current Version | Previous Version | Text Only | Print | Product List | Glossary Off
Versions: 1 2 3 4 5 6 7 8 9 10 11 12 13 14 15 16 17 18 19 20 21 22 23 24 25 26 27 28 29 30 31 32 33 34 35 36 37 38 39 40 41 42 43 44 45 46 47 48 49 50
000 ASUS42 KCHS 300313 RWRCHS REGIONAL WEATHER ROUNDUP NATIONAL WEATHER SERVICE CHARLESTON SC 1100 PM EDT FRI JUL 29 2016 NOTE: "FAIR" INDICATES FEW OR NO CLOUDS BELOW 12,000 FEET WITH NO SIGNIFICANT WEATHER AND/OR OBSTRUCTIONS TO VISIBILITY. NOT ALL STATIONS ARE QUALITY CONTROLLED. USE DATA WITH CAUTION... ESPECIALLY DEWPOINT OBSERVATIONS. SCZ027-030-031-034>040-042>050-300400- ...SOUTHEAST SOUTH CAROLINA... CITY SKY/WX TMP DP RH WIND PRES REMARKS N CHARLESTON CLEAR 85 76 74 SW8 29.97R HX 94 WATERFRONT PRK N/A 86 80 82 SW7 29.95R HX 101 MOUNT PLEASANT FAIR 84 79 84 CALM 29.97S HX 96 JOHNS ISLAND FAIR 86 81 84 S6 29.98R HX 102 PINOPOLIS N/A 86 77 74 S5 29.89R HX 97 MONCKS CORNER FAIR 82 73 74 SW7 29.96F SUMMERVILLE NOT AVBL BEAUFORT MCAS CLEAR 86 79 79 S7 29.98R HX 99 BEAUFORT ARPT FAIR 86 79 79 S5 29.97S HX 99 HILTON HEAD IS CLEAR 88 81 79 SW12 29.99R HX 105 WALTERBORO CLEAR 86 77 74 S6 29.98R HX 97 ALLENDALE FAIR 82 72 69 CALM 29.96R ...SOUTHERN MIDLANDS AND PEE DEE... CITY SKY/WX TMP DP RH WIND PRES REMARKS GEORGETOWN FAIR 81 75 83 SW8 29.97S KINGSTREE FAIR 77 72 83 CALM 29.96S ORANGEBURG CLEAR 83 72 69 CALM 29.97R BARNWELL NOT AVBL AIKEN FAIR 82 68 61 CALM 30.03R MANNING FAIR 79 72 78 CALM 29.97S COLUMBIA PTCLDY 88 71 57 N3 29.96R HX 94 SUMTER CLEAR 78 75 91 S3 29.94S FOG FLORENCE PTCLDY 79 74 84 CALM 29.96F MYRTLE BEACH MOCLDY 86 72 62 W6 29.98R HX 92 N MYRTLE BEACH MOCLDY 85 79 82 CALM 29.96R HX 98 $$ GAZ063-065-086>088-099>101-113>116-118-119-134>141-150-300400- ...SOUTHEAST GEORGIA... CITY SKY/WX TMP DP RH WIND PRES REMARKS SAVANNAH ARPT CLEAR 86 77 74 S9 29.98R HX 97 HUNTER AAF CLEAR 85 80 84 S7 29.96R HX 100 FORT STEWART NOT AVBL STATESBORO CLEAR 81 76 83 CALM 29.98R SYLVANIA NOT AVBL CLAXTON FAIR 81 73 76 CALM 29.98R ...CSRA...CENTRAL AND FAR SOUTHEAST GEORGIA... CITY SKY/WX TMP DP RH WIND PRES REMARKS THOMSON NOT AVBL AUGUSTA-BUSH CLEAR 82 69 64 CALM 29.97R AUGUSTA-DANIEL CLEAR 88 68 51 NW7 29.99R HX 91 SWAINSBORO FAIR 86 66 51 CALM 30.00R VIDALIA CLEAR 88 66 48 SW6 29.99S HX 90 EASTMAN FAIR 85 57 38 CALM 30.02S HAZLEHURST FAIR 86 71 59 CALM 29.99R HX 91 ALMA CLEAR 83 69 62 SW6 30.01R WAYCROSS CLEAR 88 74 62 W8 30.00S HX 96 JESUP FAIR 84 75 74 SW3 30.00R HX 92 BAXLEY FAIR 82 72 69 CALM 30.00R BRUNSWICK CLEAR 88 79 74 SW7 30.00S HX 102 SAINT SIMONS CLEAR 87 77 72 S9 30.00R HX 99 $$ SCZ027-028-034-036>038-045-046-048>050-GAZ119-141-300400- ...LAKE AND SUPPLEMENTAL COASTAL OBSERVATIONS... STATION/POSITION TIME TEMP WIND PRES WAVE SWELL AIR SEA DIR/SP/G HT/PER HT/PER/DIR (UTC) (F) (DEG/KT/KT) (MB) (FT/S) (FT/S/D) WINYAH BAY NOT AVBL LAKE MURRAY 0200 87 CALM / 4 1013.5R ACE BASIN NERRS NOT AVBL FORT PULASKI 0200 87 88 200/ 6/ 12 1015.4R SAPELO ISLAND 0200 86 190/ 13 1015.0S $$ ANZ835-935-AMZ111-154-330-350-352-354-370-450-454-472-300400- ...C-MAN AND BUOY OBSERVATIONS... STATION/POSITION TIME TEMP WIND PRES WAVE SWELL AIR SEA DIR/SP/G HT/PER HT/PER/DIR (UTC) (F) (DEG/KT/KT) (MB) (FT/S) (FT/S/D) BUOY 41004 0250 86 86 210/ 16/ 19 1014.5R 3/ 5 2/160/ 8 BUOY 41008 0250 87 87 180/ 19/ 23 1015.2R 4/ 5 FOLLY BEACH CMAN 0200 86 210/ 16/ 19 1015.0R CAPERS NEARSHORE 0208 86 85 230/ 16/ 19 1014.8R FRIPP NEARSHORE 0208 87 87 200/ 17/ 21 1014.2R STATION/POSITION TIME TEMP WIND PRES WAVE SWELL AIR SEA DIR/SP/G HT/PER HT/PER/DIR (UTC) (F) (DEG/KT/KT) (MB) (FT/S) (FT/S/D) 5E ST. MARYS GA 0301 85 N/A 3/ 4 FRYING PAN BUOY 0200 86 85 220/ 14/ 17 1014.1R BUOY 41025 0250 83 85 330/ 10/ 14 1014.1R 4/ 5 3/210/ 5 CAPE LOOKOUT NC 0200 84 250/ 10/ 13 1013.8R BUOY 41002 0250 85 85 220/ 10/ 12 1016.7R 3/ 6 3/250/ 6 BUOY 41010 0220 85 87 250/ 4/ 6 1017.1R ST AUGUSTINE FL 0300 80 86 220/ 6/ 8 1017.9R $$

USA.gov is the U.S. government's official web portal to all federal, state and local government web resources and services.